CW1509 Weather Reports


Display with metric or nautical units.
time (UTC)temp
F
wind
direction
speed
MPH
gust
MPH
rain 1hr
in
rain 24hr
in
rain mn
in
humidity
%
barometer
mb
20260903180441 90 330 2.0 8.0 0.00 0.00 0.00 59 1015.6
20260903175920 91 270 3.0 8.0 0.00 0.00 0.00 59 1015.4
20260903175420 92 319 3.0 6.0 0.00 0.00 0.00 58 1015.4
20260903174938 93 285 2.0 5.0 0.00 0.00 0.00 61 1015.3
20260903174434 93 273 1.0 3.0 0.00 0.00 0.00 62 1015.1
20260903173923 93 273 1.0 5.0 0.00 0.00 0.00 61 1015.0
20260903173422 93 244 3.0 5.0 0.00 0.00 0.00 60 1015.1
20260903172920 94 228 3.0 5.0 0.00 0.00 0.00 61 1015.0
20260903172421 94 240 2.0 4.0 0.00 0.00 0.00 61 1014.9
20260903171939 93 248 3.0 6.0 0.00 0.00 0.00 61 1014.9
20260903171433 93 209 3.0 6.0 0.00 0.00 0.00 60 1014.9
20260903170911 93 246 2.0 3.0 0.00 0.00 0.00 62 1014.7
20260903170431 92 278 0.0 5.0 0.00 0.00 0.00 64 1014.6
20260903165952 92 282 2.0 5.0 0.00 0.00 0.00 62 1014.6
20260903165429 92 212 2.0 5.0 0.00 0.00 0.00 64 1014.4
20260903164927 91 239 2.0 5.0 0.00 0.00 0.00 65 1014.4
20260903164426 91 257 1.0 4.0 0.00 0.00 0.00 64 1014.5
20260903163924 90 232 2.0 3.0 0.00 0.00 0.00 65 1014.5
20260903163422 90 271 0.0 4.0 0.00 0.00 0.00 67 1014.5
20260903162922 90 257 2.0 3.0 0.00 0.00 0.00 68 1014.6
20260903162439 89 196 0.0 4.0 0.00 0.00 0.00 69 1014.7
20260903161919 89 211 2.0 5.0 0.00 0.00 0.00 69 1014.7
20260903161440 88 245 1.0 5.0 0.00 0.00 0.00 68 1014.7
20260903160939 88 261 1.0 4.0 0.00 0.00 0.00 70 1014.8
20260903160417 88 260 2.0 4.0 0.00 0.00 0.00 69 1014.8
20260903155916 87 203 2.0 3.0 0.00 0.00 0.00 70 1014.7
20260903155417 87 254 2.0 4.0 0.00 0.00 0.00 71 1014.8
20260903154931 87 207 3.0 4.0 0.00 0.00 0.00 71 1014.8
20260903154450 86 258 2.0 4.0 0.00 0.00 0.00 71 1014.8
20260903153947 86 194 1.0 5.0 0.00 0.00 0.00 73 1014.9
20260903153426 86 182 3.0 5.0 0.00 0.00 0.00 72 1015.0
20260903152925 85 267 1.0 4.0 0.00 0.00 0.00 74 1015.0
20260903152423 85 184 1.0 3.0 0.00 0.00 0.00 75 1015.0
20260903151922 85 265 1.0 3.0 0.00 0.00 0.00 75 1015.1
20260903151422 84 206 2.0 3.0 0.00 0.00 0.00 76 1015.1
20260903150919 84 219 0.0 3.0 0.00 0.00 0.00 75 1015.2
20260903150419 84 270 1.0 4.0 0.00 0.00 0.00 75 1015.3
20260903145916 83 217 2.0 4.0 0.00 0.00 0.00 75 1015.3
20260903145416 83 267 0.0 4.0 0.00 0.00 0.00 76 1015.3
20260903144914 83 235 1.0 4.0 0.00 0.00 0.00 76 1015.3
20260903144413 83 186 1.0 4.0 0.00 0.00 0.00 76 1015.1
20260903143913 82 234 2.0 3.0 0.00 0.00 0.00 77 1015.1
20260903143412 82 267 1.0 3.0 0.00 0.00 0.00 77 1015.1
20260903142932 82 257 2.0 3.0 0.00 0.00 0.00 77 1015.0
20260903142431 82 212 1.0 4.0 0.00 0.00 0.00 77 1015.0
20260903141931 82 244 2.0 4.0 0.00 0.00 0.00 77 1014.8
20260903141429 82 247 2.0 4.0 0.00 0.00 0.00 77 1014.8
20260903140928 81 193 2.0 3.0 0.00 0.00 0.00 77 1014.8
20260903140426 81 237 1.0 4.0 0.00 0.00 0.00 79 1014.9
20260903135927 81 198 1.0 4.0 0.00 0.00 0.00 79 1014.8
20260903135426 81 254 1.0 4.0 0.00 0.00 0.00 79 1014.7
20260903134926 81 190 2.0 5.0 0.00 0.00 0.00 79 1014.7
20260903134424 80 207 2.0 3.0 0.00 0.00 0.00 80 1014.6
20260903133924 80 219 1.0 3.0 0.00 0.00 0.00 81 1014.6
20260903133422 80 235 2.0 3.0 0.00 0.00 0.00 81 1014.7
20260903132923 80 214 0.0 3.0 0.00 0.00 0.00 81 1014.7
20260903132423 79 182 2.0 3.0 0.00 0.00 0.00 81 1014.7
20260903131922 79 244 1.0 3.0 0.00 0.00 0.00 81 1014.7
20260903131421 79 228 1.0 3.0 0.00 0.00 0.00 82 1014.7
20260903130919 78 219 2.0 3.0 0.00 0.00 0.00 82 1014.9
20260903130439 78 261 1.0 2.0 0.00 0.00 0.00 83 1014.9
20260903125918 78 240 0.0 2.0 0.00 0.00 0.00 84 1014.9
20260903125417 78 184 0.0 2.0 0.00 0.00 0.00 85 1015.0
20260903124916 77 184 0.0 2.0 0.00 0.00 0.00 85 1015.1
20260903124416 77 224 0.0 0.0 0.00 0.00 0.00 86 1015.2
20260903123935 77 224 0.0 1.0 0.00 0.00 0.00 86 1015.2
20260903123412 76 224 0.0 2.0 0.00 0.00 0.00 86 1015.1
20260903122912 76 224 0.0 2.0 0.00 0.00 0.00 86 1015.0
20260903122431 76 187 0.0 2.0 0.00 0.00 0.00 87 1015.1
20260903121929 76 187 0.0 2.0 0.00 0.00 0.00 87 1015.0
20260903121448 76 181 0.0 2.0 0.00 0.00 0.00 87 1015.0
20260903120928 76 181 0.0 2.0 0.00 0.00 0.00 87 1015.0
20260903120427 76 181 0.0 1.0 0.00 0.00 0.00 87 1015.1
20260903115927 76 181 0.0 2.0 0.00 0.00 0.00 87 1015.1
20260903115425 76 181 0.0 2.0 0.00 0.00 0.00 87 1015.0
20260903114924 76 173 0.0 0.0 0.00 0.00 0.00 87 1015.1
20260903114444 76 183 0.0 0.0 0.00 0.00 0.00 87 1015.0
20260903113924 76 185 0.0 0.0 0.00 0.00 0.00 87 1015.0
20260903113422 76 178 0.0 0.0 0.00 0.00 0.00 87 1015.0
20260903112921 76 178 0.0 0.0 0.00 0.00 0.00 87 1015.0
20260903112421 76 178 0.0 0.0 0.00 0.00 0.00 87 1014.9
20260903111941 76 178 0.0 0.0 0.00 0.00 0.00 87 1014.9
20260903111418 76 178 0.0 0.0 0.00 0.00 0.00 87 1014.9
20260903110917 76 178 0.0 0.0 0.00 0.00 0.00 87 1014.9
20260903110417 76 178 0.0 0.0 0.00 0.00 0.00 88 1014.9
20260903105916 76 178 0.0 0.0 0.00 0.00 0.00 88 1014.7
20260903105435 76 178 0.0 0.0 0.00 0.00 0.00 88 1014.7
20260903104915 76 178 0.0 0.0 0.00 0.00 0.00 88 1014.8
20260903104413 76 178 0.0 0.0 0.00 0.00 0.00 88 1014.7
20260903103913 76 178 0.0 0.0 0.00 0.00 0.00 88 1014.6
20260903103414 76 178 0.0 0.0 0.00 0.00 0.00 88 1014.7
20260903102914 76 178 0.0 0.0 0.00 0.00 0.00 88 1014.7
20260903102415 76 178 0.0 0.0 0.00 0.00 0.00 88 1014.7
20260903101934 76 178 0.0 1.0 0.00 0.00 0.00 89 1014.7
20260903101412 76 178 0.0 2.0 0.00 0.00 0.00 89 1014.7
20260903100931 76 184 0.0 0.0 0.00 0.00 0.00 89 1014.7
20260903100429 77 184 0.0 1.0 0.00 0.00 0.00 89 1014.7
20260903095928 77 184 0.0 1.0 0.00 0.00 0.00 89 1014.7
20260903095445 77 184 0.0 1.0 0.00 0.00 0.00 89 1014.7
20260903094922 77 184 0.0 0.0 0.00 0.00 0.00 89 1014.8
20260903094442 77 184 0.0 0.0 0.00 0.00 0.00 89 1014.8
20260903093920 77 184 0.0 2.0 0.00 0.00 0.00 89 1014.7
20260903093440 77 184 0.0 2.0 0.00 0.00 0.00 89 1014.7
20260903092919 77 213 0.0 1.0 0.00 0.00 0.00 89 1014.7
20260903092417 77 213 0.0 2.0 0.00 0.00 0.00 89 1014.7
20260903091917 77 213 1.0 2.0 0.00 0.00 0.00 89 1014.7
20260903091416 77 185 0.0 0.0 0.00 0.00 0.00 89 1014.7
20260903090917 77 197 0.0 0.0 0.00 0.00 0.00 88 1014.7
20260903090416 77 186 0.0 0.0 0.00 0.00 0.00 88 1014.6
20260903085935 77 186 0.0 0.0 0.00 0.00 0.00 88 1014.7
20260903085414 77 186 0.0 0.0 0.00 0.00 0.00 88 1014.6
20260903084913 77 186 0.0 0.0 0.00 0.00 0.00 88 1014.6
20260903084412 77 186 0.0 0.0 0.00 0.00 0.00 87 1014.6
20260903083931 77 186 0.0 0.0 0.00 0.00 0.00 87 1014.6
20260903083431 77 186 0.0 0.0 0.00 0.00 0.00 87 1014.6
20260903082929 77 186 0.0 0.0 0.00 0.00 0.00 87 1014.6
20260903082429 78 186 0.0 0.0 0.00 0.00 0.00 87 1014.7
20260903081929 78 186 0.0 0.0 0.00 0.00 0.00 87 1014.6
20260903081427 78 186 0.0 0.0 0.00 0.00 0.00 87 1014.7
20260903080926 78 186 0.0 0.0 0.00 0.00 0.00 86 1014.6
20260903080447 78 186 0.0 0.0 0.00 0.00 0.00 86 1014.5
20260903075925 78 186 0.0 0.0 0.00 0.00 0.00 86 1014.6
20260903075424 78 186 0.0 0.0 0.00 0.00 0.00 86 1014.5
20260903074923 78 186 0.0 0.0 0.00 0.00 0.00 86 1014.5
20260903074443 78 186 0.0 0.0 0.00 0.00 0.00 86 1014.5
20260903073921 79 186 0.0 0.0 0.00 0.00 0.00 86 1014.5
20260903073420 79 186 0.0 0.0 0.00 0.00 0.00 86 1014.4
20260903072920 79 186 0.0 0.0 0.00 0.00 0.00 86 1014.4
20260903072420 79 186 0.0 0.0 0.00 0.00 0.00 86 1014.4
20260903071920 79 186 0.0 0.0 0.00 0.00 0.00 86 1014.4
20260903071421 79 186 0.0 0.0 0.00 0.00 0.00 85 1014.4
20260903070920 79 186 0.0 0.0 0.00 0.00 0.00 85 1014.4
20260903070419 79 230 0.0 0.0 0.00 0.00 0.00 85 1014.3
20260903065918 79 230 0.0 0.0 0.00 0.00 0.00 85 1014.3
20260903065417 79 230 0.0 0.0 0.00 0.00 0.00 85 1014.3
20260903064916 79 230 0.0 0.0 0.00 0.00 0.00 84 1014.4
20260903064416 80 230 0.0 0.0 0.00 0.00 0.00 84 1014.4
20260903063915 80 230 0.0 0.0 0.00 0.00 0.00 84 1014.4
20260903063415 80 230 0.0 0.0 0.00 0.00 0.00 84 1014.4
20260903062934 80 230 0.0 0.0 0.00 0.00 0.00 84 1014.4
20260903062413 80 230 0.0 0.0 0.00 0.00 0.00 84 1014.4
20260903061914 80 230 0.0 0.0 0.00 0.00 0.00 84 1014.3
20260903061415 80 230 0.0 0.0 0.00 0.00 0.00 84 1014.3
20260903060935 80 230 0.0 0.0 0.00 0.00 0.00 84 1014.3
20260903060415 80 230 0.0 0.0 0.00 0.00 0.00 83 1014.3
20260903055915 80 230 0.0 0.0 0.00 0.00 0.00 83 1014.3
20260903055414 81 230 0.0 0.0 0.00 0.00 0.00 83 1014.3
20260903054932 81 250 0.0 0.0 0.00 0.00 0.00 83 1014.4
20260903054452 81 250 0.0 0.0 0.00 0.00 0.00 83 1014.3
20260903053930 81 250 0.0 0.0 0.00 0.00 0.00 83 1014.3
20260903053427 81 250 0.0 0.0 0.00 0.00 0.00 83 1014.2
20260903052927 81 250 0.0 0.0 0.00 0.00 0.00 83 1014.3
20260903052425 81 250 0.0 0.0 0.00 0.00 0.00 82 1014.2
20260903051925 81 250 0.0 0.0 0.00 0.00 0.00 82 1014.2
20260903051423 81 250 0.0 0.0 0.00 0.00 0.00 82 1014.2
20260903050920 81 250 0.0 2.0 0.00 0.00 0.00 82 1014.2
20260903050439 81 250 0.0 2.0 0.00 0.00 0.00 82 1014.1
20260903045917 81 237 1.0 3.0 0.00 0.00 0.00 82 1014.1
20260903045415 82 242 1.0 2.0 0.00 0.00 0.00 82 1014.1
20260903044914 82 223 1.0 3.0 0.00 0.00 0.00 82 1014.0
20260903044434 82 220 1.0 3.0 0.00 0.00 0.00 82 1014.1
20260903043913 82 250 2.0 2.0 0.00 0.00 0.00 82 1014.1
20260903043412 82 262 2.0 3.0 0.00 0.00 0.00 82 1014.1
20260903042927 82 190 1.0 3.0 0.00 0.00 0.00 82 1014.0
20260903042446 82 232 2.0 3.0 0.00 0.00 0.00 82 1014.0
20260903041925 82 241 0.0 0.0 0.00 0.00 0.00 82 1014.0
20260903041443 82 205 0.0 0.0 0.00 0.00 0.00 81 1014.1
20260903040922 82 220 0.0 0.0 0.00 0.00 0.00 81 1014.0
20260903040421 82 207 0.0 0.0 0.00 0.00 0.00 81 1014.0
20260903035921 82 228 0.0 0.0 0.00 0.00 0.00 80 1014.0
20260903035420 83 228 0.0 0.0 0.00 0.00 0.00 80 1014.0
20260903034920 83 228 0.0 0.0 0.00 0.00 0.00 80 1014.1
20260903034419 83 228 0.0 0.0 0.00 0.00 0.00 80 1014.0
20260903033918 83 228 0.0 0.0 0.00 0.00 0.00 80 1014.1
20260903033418 83 228 0.0 0.0 0.00 0.00 0.00 79 1014.0
20260903032917 83 228 0.0 0.0 0.00 0.00 0.00 79 1014.0
20260903032419 83 228 0.0 0.0 0.00 0.00 0.00 79 1014.0
20260903031918 83 228 0.0 0.0 0.00 0.00 0.00 79 1013.9
20260903031419 83 228 0.0 0.0 0.00 0.00 0.00 79 1014.0
20260903030919 83 228 0.0 0.0 0.00 0.00 0.00 79 1014.0
20260903030418 83 228 0.0 0.0 0.00 0.00 0.00 79 1014.0
20260903025918 84 228 0.0 0.0 0.00 0.00 0.00 79 1013.9
20260903025417 84 228 0.0 3.0 0.00 0.00 0.00 79 1013.9
20260903024915 84 186 1.0 3.0 0.00 0.00 0.00 78 1014.1
20260903024415 84 215 0.0 2.0 0.00 0.00 0.00 78 1014.1
20260903023914 84 215 1.0 2.0 0.00 0.00 0.00 78 1014.1
20260903023414 84 201 0.0 2.0 0.00 0.00 0.00 78 1014.1
20260903022913 84 223 0.0 2.0 0.00 0.00 0.00 78 1014.1
20260903022432 84 223 1.0 2.0 0.00 0.00 0.00 78 1014.2
20260903021931 84 238 1.0 4.0 0.00 0.00 0.00 78 1014.1
20260903021427 84 197 2.0 4.0 0.00 0.00 0.00 78 1014.1
20260903020928 84 243 2.0 4.0 0.00 0.00 0.00 78 1014.1
20260903020428 85 173 1.0 3.0 0.00 0.00 0.00 78 1014.1
20260903015927 85 252 2.0 4.0 0.00 0.00 0.00 78 1014.0
20260903015425 85 206 2.0 4.0 0.00 0.00 0.00 78 1013.9
20260903014944 85 244 1.0 3.0 0.00 0.00 0.00 78 1013.9
20260903014424 85 242 1.0 3.0 0.00 0.00 0.00 78 1013.8
20260903013944 85 234 1.0 5.0 0.00 0.00 0.00 78 1013.8
20260903013422 85 207 2.0 5.0 0.00 0.00 0.00 78 1013.8
20260903012922 85 270 1.0 3.0 0.00 0.00 0.00 78 1013.7
20260903012421 85 249 1.0 3.0 0.00 0.00 0.00 78 1013.7
20260903011921 86 202 2.0 3.0 0.00 0.00 0.00 78 1013.6
20260903011421 86 238 1.0 4.0 0.00 0.00 0.00 77 1013.5
20260903010922 86 246 2.0 4.0 0.00 0.00 0.00 77 1013.4
20260903010423 86 217 1.0 3.0 0.00 0.00 0.00 77 1013.4
20260903005943 86 217 1.0 3.0 0.00 0.00 0.00 76 1013.3
20260903005421 86 241 1.0 3.0 0.00 0.00 0.00 76 1013.4
20260903004920 87 192 1.0 3.0 0.00 0.00 0.00 75 1013.3
20260903004440 87 230 1.0 3.0 0.00 0.00 0.00 75 1013.3
20260903003919 87 242 1.0 4.0 0.00 0.00 0.00 75 1013.3
20260903003419 87 225 0.0 4.0 0.00 0.00 0.00 74 1013.2
20260903002926 87 206 1.0 3.0 0.00 0.00 0.00 74 1013.3
20260903002423 88 241 1.0 3.0 0.00 0.00 0.00 73 1013.4
20260903001945 88 240 1.0 3.0 0.00 0.00 0.00 73 1013.4
20260903001421 88 227 2.0 3.0 0.00 0.00 0.00 72 1013.4
20260903000921 88 215 1.0 3.0 0.00 0.00 0.00 72 1013.4
20260903000421 89 240 1.0 3.0 0.00 0.00 0.00 71 1013.4
20260902235921 89 240 1.0 4.0 0.00 0.00 0.00 71 1013.5
20260902235419 89 238 2.0 4.0 0.00 0.00 0.00 70 1013.5
20260902234920 89 227 1.0 3.0 0.00 0.00 0.00 70 1013.5
20260902234420 89 221 1.0 3.0 0.00 0.00 0.00 69 1013.4
20260902233922 90 239 1.0 3.0 0.00 0.00 0.00 68 1013.4
20260902233426 90 192 2.0 3.0 0.00 0.00 0.00 67 1013.4
20260902232930 90 250 1.0 2.0 0.00 0.00 0.00 67 1013.4
20260902232412 90 192 1.0 2.0 0.00 0.00 0.00 66 1013.4
20260902231913 90 237 1.0 3.0 0.00 0.00 0.00 65 1013.4
20260902231434 90 232 2.0 3.0 0.00 0.00 0.00 64 1013.4
20260902230932 91 242 1.0 4.0 0.00 0.00 0.00 63 1013.4
20260902230431 91 218 2.0 4.0 0.00 0.00 0.00 62 1013.5
20260902225931 91 232 1.0 4.0 0.00 0.00 0.00 62 1013.5
20260902225429 91 212 2.0 6.0 0.00 0.00 0.00 62 1013.5
20260902224928 91 232 3.0 6.0 0.00 0.00 0.00 62 1013.6
20260902224444 91 245 3.0 6.0 0.00 0.00 0.00 62 1013.4
20260902223923 91 260 2.0 4.0 0.00 0.00 0.00 63 1013.4
20260902223421 91 259 3.0 5.0 0.00 0.00 0.00 63 1013.5
20260902222940 92 190 2.0 5.0 0.00 0.00 0.00 63 1013.5
20260902222418 92 241 2.0 4.0 0.00 0.00 0.00 63 1013.6
20260902221918 92 182 2.0 4.0 0.00 0.00 0.00 63 1013.5
20260902221417 92 250 2.0 5.0 0.00 0.00 0.00 62 1013.5
20260902220918 92 167 2.0 5.0 0.00 0.00 0.00 62 1013.6
20260902220418 92 252 2.0 5.0 0.00 0.00 0.00 61 1013.5
20260902215919 92 199 2.0 6.0 0.00 0.00 0.00 62 1013.5
20260902215419 92 246 2.0 6.0 0.00 0.00 0.00 61 1013.5
20260902214940 92 248 2.0 8.0 0.00 0.00 0.00 60 1013.5
20260902214418 92 252 3.0 8.0 0.00 0.00 0.00 59 1013.5
20260902213936 92 215 3.0 5.0 0.00 0.00 0.00 61 1013.6
20260902213414 92 157 3.0 5.0 0.00 0.00 0.00 61 1013.7
20260902212914 92 173 2.0 7.0 0.00 0.00 0.00 61 1013.6
20260902212434 92 248 2.0 7.0 0.00 0.00 0.00 60 1013.6
20260902211933 92 217 2.0 7.0 0.00 0.00 0.00 62 1013.7
20260902211452 92 148 3.0 8.0 0.00 0.00 0.00 62 1013.7
20260902210949 92 190 2.0 5.0 0.00 0.00 0.00 63 1013.8
20260902210428 92 236 3.0 5.0 0.00 0.00 0.00 63 1013.9
20260902205418 92 248 2.0 6.0 0.00 0.00 0.00 61 1014.0
20260902204931 92 269 2.0 6.0 0.00 0.00 0.00 61 1014.1
20260902204441 92 210 3.0 7.0 0.00 0.00 0.00 60 1014.1
20260902203914 92 217 3.0 7.0 0.00 0.00 0.00 60 1014.1
20260902203415 92 179 3.0 7.0 0.00 0.00 0.00 61 1014.1
20260902202914 92 154 2.0 6.0 0.00 0.00 0.00 64 1014.3
20260902202414 92 263 2.0 4.0 0.00 0.00 0.00 64 1014.3
20260902201914 92 202 1.0 4.0 0.00 0.00 0.00 64 1014.3
20260902201434 92 197 2.0 4.0 0.00 0.00 0.00 63 1014.3
20260902200931 92 249 3.0 5.0 0.00 0.00 0.00 63 1014.4
20260902200449 92 250 1.0 5.0 0.00 0.00 0.00 63 1014.5
20260902195948 92 269 1.0 6.0 0.00 0.00 0.00 62 1014.5
20260902195427 92 213 3.0 7.0 0.00 0.00 0.00 64 1014.6
20260902194927 92 202 3.0 7.0 0.00 0.00 0.00 64 1014.7
20260902194428 91 184 2.0 6.0 0.00 0.00 0.00 64 1014.7
20260902193925 91 169 3.0 5.0 0.00 0.00 0.00 65 1014.7
20260902193425 91 190 2.0 4.0 0.00 0.00 0.00 65 1014.8
20260902192925 91 184 1.0 5.0 0.00 0.00 0.00 65 1014.9
20260902192443 91 200 1.0 5.0 0.00 0.00 0.00 65 1015.0
20260902191921 91 214 1.0 5.0 0.00 0.00 0.00 63 1015.0
20260902191419 91 203 2.0 6.0 0.00 0.00 0.00 64 1015.0
20260902190919 91 221 2.0 6.0 0.00 0.00 0.00 64 1015.0
20260902190419 91 246 2.0 4.0 0.00 0.00 0.00 64 1015.0
20260902185919 91 215 2.0 4.0 0.00 0.00 0.00 65 1015.0
20260902185416 91 192 1.0 5.0 0.00 0.00 0.00 65 1015.0
20260902184915 91 216 2.0 5.0 0.00 0.00 0.00 64 1015.0
20260902184416 91 244 2.0 4.0 0.00 0.00 0.00 65 1015.1
20260902183915 91 225 1.0 4.0 0.00 0.00 0.00 64 1015.0
20260902182929 91 204 3.0 6.0 0.00 0.00 0.00 63 1015.1
20260902182428 91 190 2.0 7.0 0.00 0.00 0.00 63 1015.1
20260902181928 91 267 0.0 10.0 0.00 0.00 0.00 63 1015.1
20260902181428 91 273 3.0 10.0 0.00 0.00 0.00 62 1015.2
20260902180926 91 211 1.0 5.0 0.00 0.00 0.00 63 1015.1